Torna al catalogo

FENGYUN 1C DEB

AttivoSSO
NORAD 37712·DEBRIS·🇨🇳 China

Lanciato May 10, 1999 da Taiyuan Satellite Launch Center

Loading…

Prossimi Passaggi (prossime 24 ore)

TLE

AggiornatoSource: Space-Track

Epoca: Sep 13, 2026, 05:30 UTC

1 37712U 99025EMD 26256.22948124  .00000745  00000-0  25783-3 0  9992
2 37712  98.8549  47.4770 0077659 262.9083 222.0098 14.37124574679023

Traccia FENGYUN 1C DEB in tempo reale con AllMySat

Download on the App Store